This is the latest recevied weather packets stored in our database for station/object KN1OBI-13. If no packets are shown the sender has not sent any weather packets the latest 10 day(s).
| Time | Temp. | Humidity | Pressure | Rain* | Wind** | Luminosity | Snow |
|---|---|---|---|---|---|---|---|
| 1787847990 | 26.11° C | 69% | 996.8 hPa | 0 mm | - | - | - |
| 1787847390 | 26.67° C | 70% | 996.8 hPa | 0 mm | - | - | - |
| 1787846790 | 26.67° C | 71% | 997.1 hPa | 0 mm | - | - | - |
| 1787846190 | 26.11° C | 72% | 997.1 hPa | 0 mm | - | - | - |
| 1787845590 | 25.56° C | 75% | 997.4 hPa | 0 mm | - | - | - |
| 1787844990 | 25° C | 74% | 997.4 hPa | 0 mm | - | - | - |
| 1787844390 | 25° C | 74% | 997.4 hPa | 0 mm | - | - | - |
| 1787843790 | 25° C | 76% | 997.7 hPa | 0 mm | - | - | - |
| 1787843190 | 24.44° C | 78% | 998.1 hPa | 0 mm | - | - | - |
| 1787842590 | 23.89° C | 76% | 997.6 hPa | 0 mm | - | - | - |
| 1787841990 | 23.89° C | 81% | 997.9 hPa | 0 mm | - | - | - |
| 1787841390 | 23.33° C | 83% | 998 hPa | 0 mm | - | - | - |
| 1787840790 | 22.78° C | 85% | 998.1 hPa | 0 mm | - | - | - |
| 1787840190 | 22.22° C | 87% | 998.3 hPa | 0 mm | - | - | - |
| 1787839590 | 22.22° C | 88% | 998 hPa | 0 mm | - | - | - |
| 1787838990 | 21.67° C | 89% | 998 hPa | 0 mm | - | - | - |
| 1787838390 | 21.67° C | 90% | 998.1 hPa | 0 mm | - | - | - |
| 1787837790 | 21.11° C | 91% | 997.9 hPa | 0 mm | - | - | - |
| 1787837190 | 21.11° C | 91% | 998 hPa | 0 mm | - | - | - |
| 1787836590 | 20.56° C | 92% | 998.1 hPa | 0 mm | - | - | - |
| 1787835990 | 20.56° C | 93% | 997.6 hPa | 0 mm | - | - | - |
| 1787835390 | 20° C | 94% | 997.7 hPa | 0 mm | - | - | - |
| 1787834790 | 20° C | 94% | 997.7 hPa | 0 mm | - | - | - |
| 1787834190 | 19.44° C | 94% | 998 hPa | 0 mm | - | - | - |
| 1787833590 | 19.44° C | 94% | 997.7 hPa | 0 mm | - | - | - |
* Rain latest hour (hover to see other rain measurements)
** Current wind speed in m/s (hover to see current wind gust speed)